Year,Month,Day,Hour,Minute,Value (Times are PST for temperature in C)
2017,04,26,08,23,16.20
2017,04,26,08,24,15.20
2017,04,26,08,25,13.80
2017,04,26,08,26,12.80
2017,04,26,08,27,12.10
2017,04,26,08,28,11.50
2017,04,26,08,29,11.00
2017,04,26,08,30,10.70
2017,04,26,08,31,10.50
2017,04,26,08,32,10.30
2017,04,26,08,33,10.30
2017,04,26,08,34,10.20
2017,04,26,08,35,10.20
2017,04,26,08,36,10.20
2017,04,26,08,39,10.30
2017,04,26,08,40,10.10
2017,04,26,08,41,9.90
2017,04,26,08,42,9.70
2017,04,26,08,43,9.50
2017,04,26,08,44,9.30
2017,04,26,08,45,9.20
2017,04,26,08,46,9.10
2017,04,26,08,47,9.10
2017,04,26,08,48,9.00
2017,04,26,08,49,9.00
2017,04,26,08,50,9.00
2017,04,26,08,51,9.00
2017,04,26,08,52,9.00
2017,04,26,08,53,9.10
2017,04,26,08,54,9.10
2017,04,26,08,55,9.10
2017,04,26,08,56,9.20
2017,04,26,08,57,9.20
2017,04,26,08,58,9.30
2017,04,26,08,59,9.40
2017,04,26,09,00,9.40
2017,04,26,09,01,9.50
2017,04,26,09,02,9.60
2017,04,26,09,03,9.70
2017,04,26,09,04,9.80
2017,04,26,09,05,9.80
2017,04,26,09,06,9.90
2017,04,26,09,07,10.00
2017,04,26,09,08,10.10
2017,04,26,09,09,10.20
2017,04,26,09,10,10.20
2017,04,26,09,11,10.20
2017,04,26,09,12,10.20
2017,04,26,09,13,10.20
2017,04,26,09,14,10.20
2017,04,26,09,15,10.20
2017,04,26,09,16,10.20
2017,04,26,09,17,10.20
2017,04,26,09,18,10.20
2017,04,26,09,19,10.20
2017,04,26,09,20,10.20
2017,04,26,09,21,10.20
2017,04,26,09,22,10.20
2017,04,26,09,23,10.20
2017,04,26,09,24,10.20
2017,04,26,09,25,10.20
2017,04,26,09,26,10.20
2017,04,26,09,27,10.20
2017,04,26,09,28,10.20
2017,04,26,09,29,10.30
2017,04,26,09,30,10.30
2017,04,26,09,31,10.30
2017,04,26,09,32,10.30
2017,04,26,09,33,10.40
2017,04,26,09,34,10.40
2017,04,26,09,35,10.50
2017,04,26,09,36,10.50
2017,04,26,09,37,10.50
2017,04,26,09,38,10.60
2017,04,26,09,39,10.60
2017,04,26,09,40,10.60
2017,04,26,09,41,10.70
2017,04,26,09,42,10.70
2017,04,26,09,43,10.80
2017,04,26,09,44,10.80
2017,04,26,09,45,10.80
2017,04,26,09,46,10.80
2017,04,26,09,47,10.90
2017,04,26,09,48,10.90
2017,04,26,09,49,10.90
2017,04,26,09,50,10.90
2017,04,26,09,51,11.00
2017,04,26,09,52,11.00
2017,04,26,09,53,11.00
2017,04,26,09,54,11.00
2017,04,26,09,55,11.10
2017,04,26,09,56,11.10
2017,04,26,09,57,11.10
2017,04,26,09,58,11.20
2017,04,26,09,59,11.20
2017,04,26,10,00,11.20
2017,04,26,10,01,11.20
2017,04,26,10,02,11.20
2017,04,26,10,03,11.20
2017,04,26,10,04,11.20
2017,04,26,10,05,11.30
2017,04,26,10,06,11.30
2017,04,26,10,07,11.40
2017,04,26,10,08,11.60
2017,04,26,10,09,11.70
2017,04,26,10,10,11.80
2017,04,26,10,11,11.90
2017,04,26,10,12,12.00
2017,04,26,10,13,12.10
2017,04,26,10,14,12.00
2017,04,26,10,15,12.00
2017,04,26,10,16,11.90
2017,04,26,10,17,11.90
2017,04,26,10,18,12.00
2017,04,26,10,19,12.10
2017,04,26,10,20,12.20
2017,04,26,10,21,12.30
2017,04,26,10,22,12.40
2017,04,26,10,23,12.50
2017,04,26,10,24,12.50
2017,04,26,10,25,12.50
2017,04,26,10,26,12.70
2017,04,26,10,27,12.80
2017,04,26,10,28,12.90
2017,04,26,10,29,13.00
2017,04,26,10,30,12.90
2017,04,26,10,31,12.80
2017,04,26,10,32,12.80
2017,04,26,10,33,12.80
2017,04,26,10,34,12.90
2017,04,26,10,35,13.00
2017,04,26,10,36,13.10
2017,04,26,10,37,13.10
2017,04,26,10,38,13.20
2017,04,26,10,39,13.30
2017,04,26,10,40,13.40
2017,04,26,10,41,13.60
2017,04,26,10,42,13.70
2017,04,26,10,43,13.90
2017,04,26,10,44,13.90
2017,04,26,10,45,13.90
2017,04,26,10,46,13.90
2017,04,26,10,47,13.90
2017,04,26,10,48,14.00
2017,04,26,10,49,14.00
2017,04,26,10,50,13.90
2017,04,26,10,51,13.90
2017,04,26,10,52,13.90
2017,04,26,10,53,14.00
2017,04,26,10,54,13.90
2017,04,26,10,55,13.80
2017,04,26,10,56,13.80
2017,04,26,10,57,13.80
2017,04,26,10,58,13.80
2017,04,26,10,59,13.70
2017,04,26,11,00,13.80
2017,04,26,11,01,14.00
2017,04,26,11,02,14.10
2017,04,26,11,03,14.10
2017,04,26,11,04,14.10
2017,04,26,11,05,14.10
2017,04,26,11,06,14.00
2017,04,26,11,07,13.90
2017,04,26,11,08,13.90
2017,04,26,11,09,13.90
2017,04,26,11,10,13.90
2017,04,26,11,11,13.90
2017,04,26,11,12,14.00
2017,04,26,11,13,14.10
2017,04,26,11,14,14.20
2017,04,26,11,15,14.20
2017,04,26,11,16,14.20
2017,04,26,11,17,14.10
2017,04,26,11,18,14.10
2017,04,26,11,19,14.10
2017,04,26,11,20,14.10
2017,04,26,11,21,14.10
2017,04,26,11,22,14.20
2017,04,26,11,23,14.20
2017,04,26,11,24,14.20
2017,04,26,11,25,14.20
2017,04,26,11,26,14.10
2017,04,26,11,27,14.20
2017,04,26,11,28,14.20
2017,04,26,11,29,14.30
2017,04,26,11,30,14.40
2017,04,26,11,31,14.50
2017,04,26,11,32,14.40
2017,04,26,11,33,14.30
2017,04,26,11,34,14.30
2017,04,26,11,35,14.30
2017,04,26,11,36,14.30
2017,04,26,11,37,14.30
2017,04,26,11,38,14.40
2017,04,26,11,39,14.50
2017,04,26,11,40,14.60
2017,04,26,11,41,14.80
2017,04,26,11,42,14.80
2017,04,26,11,43,14.80
2017,04,26,11,44,14.90
2017,04,26,11,45,14.90
2017,04,26,11,46,15.00
2017,04,26,11,47,15.00
2017,04,26,11,48,15.10
2017,04,26,11,49,15.00
2017,04,26,11,50,14.90
2017,04,26,11,51,14.80
2017,04,26,11,52,14.80
2017,04,26,11,53,14.90
2017,04,26,11,54,14.90
2017,04,26,11,55,14.70
2017,04,26,11,56,14.60
2017,04,26,11,57,14.60
2017,04,26,11,58,14.60
2017,04,26,11,59,14.40
2017,04,26,12,00,14.30
2017,04,26,12,01,14.30
2017,04,26,12,02,14.40
2017,04,26,12,03,14.50
2017,04,26,12,04,14.70
2017,04,26,12,05,14.80
2017,04,26,12,06,15.10
2017,04,26,12,07,15.20
2017,04,26,12,08,15.30
2017,04,26,12,09,15.20
2017,04,26,12,10,15.10
2017,04,26,12,11,15.00
2017,04,26,12,12,15.00
2017,04,26,12,13,14.80
2017,04,26,12,14,14.80
2017,04,26,12,15,14.80
2017,04,26,12,16,14.90
2017,04,26,12,17,14.90
2017,04,26,12,18,15.00
2017,04,26,12,19,15.10
2017,04,26,12,20,15.10
2017,04,26,12,21,15.10
2017,04,26,12,22,15.00
2017,04,26,12,23,14.90
2017,04,26,12,24,14.80
2017,04,26,12,25,14.70
2017,04,26,12,26,14.60
2017,04,26,12,27,14.60
2017,04,26,12,28,14.50
2017,04,26,12,29,14.40
2017,04,26,12,30,14.40
2017,04,26,12,31,14.30
2017,04,26,12,32,14.40
2017,04,26,12,33,14.60
2017,04,26,12,34,14.70
2017,04,26,12,35,14.90
2017,04,26,12,36,15.00
2017,04,26,12,37,15.20
2017,04,26,12,38,15.40
2017,04,26,12,39,15.50
2017,04,26,12,40,15.60
2017,04,26,12,41,15.60
2017,04,26,12,42,15.50
2017,04,26,12,43,15.40
2017,04,26,12,44,15.20
2017,04,26,12,45,15.10
2017,04,26,12,46,15.00
2017,04,26,12,47,14.90
2017,04,26,12,48,14.70
2017,04,26,12,49,14.70
2017,04,26,12,50,14.60
2017,04,26,12,51,14.50
2017,04,26,12,52,14.40
2017,04,26,12,53,14.30
2017,04,26,12,54,14.20
2017,04,26,12,55,14.10
2017,04,26,12,56,13.90
2017,04,26,12,57,13.80
2017,04,26,12,58,13.80
2017,04,26,12,59,13.80
2017,04,26,13,00,13.80
2017,04,26,13,01,13.80
2017,04,26,13,02,13.80
2017,04,26,13,03,13.70
2017,04,26,13,04,13.70
2017,04,26,13,05,13.70
2017,04,26,13,06,13.60
2017,04,26,13,07,13.60
2017,04,26,13,08,13.50
2017,04,26,13,09,13.50
2017,04,26,13,10,13.50
2017,04,26,13,11,13.50
2017,04,26,13,12,13.50
2017,04,26,13,13,13.70
2017,04,26,13,14,13.90
2017,04,26,13,15,14.00
2017,04,26,13,16,14.20
2017,04,26,13,17,14.30
2017,04,26,13,18,14.50
2017,04,26,13,19,14.60
2017,04,26,13,20,14.70
2017,04,26,13,21,14.80
2017,04,26,13,22,14.80
2017,04,26,13,23,14.80
2017,04,26,13,24,14.80
2017,04,26,13,25,14.80
2017,04,26,13,26,14.80
2017,04,26,13,27,14.80
2017,04,26,13,28,14.80
2017,04,26,13,29,14.90
2017,04,26,13,30,14.90
2017,04,26,13,31,15.00
2017,04,26,13,32,15.00
2017,04,26,13,33,14.90
2017,04,26,13,34,14.90
2017,04,26,13,35,14.80
2017,04,26,13,36,14.70
2017,04,26,13,37,14.70
2017,04,26,13,38,14.70
2017,04,26,13,39,14.70
2017,04,26,13,40,14.70
2017,04,26,13,41,14.80
2017,04,26,13,42,14.80
2017,04,26,13,43,14.80
2017,04,26,13,44,14.80
2017,04,26,13,45,14.80
2017,04,26,13,46,14.70
2017,04,26,13,47,14.50
2017,04,26,13,48,14.30
2017,04,26,13,49,14.10
2017,04,26,13,50,14.00
2017,04,26,13,51,13.90
2017,04,26,13,52,13.80
2017,04,26,13,53,13.70
2017,04,26,13,54,13.60
2017,04,26,13,55,13.50
2017,04,26,13,56,13.40
2017,04,26,13,57,13.30
2017,04,26,13,58,13.20
2017,04,26,13,59,13.20
2017,04,26,14,00,13.20
2017,04,26,14,01,13.20
2017,04,26,14,02,13.20
2017,04,26,14,03,13.30
2017,04,26,14,04,13.30
2017,04,26,14,05,13.40
2017,04,26,14,06,13.50
2017,04,26,14,07,13.60
2017,04,26,14,08,13.70
2017,04,26,14,09,13.70
2017,04,26,14,10,13.70
2017,04,26,14,11,13.70
2017,04,26,14,12,13.80
2017,04,26,14,13,13.80
2017,04,26,14,14,13.80
2017,04,26,14,15,13.90
2017,04,26,14,16,14.00
2017,04,26,14,17,14.10
2017,04,26,14,18,14.20
2017,04,26,14,19,14.40
2017,04,26,14,20,14.50
2017,04,26,14,21,14.60
2017,04,26,14,22,14.70
2017,04,26,14,23,14.80
2017,04,26,14,24,14.80
2017,04,26,14,25,14.70
2017,04,26,14,26,14.70
2017,04,26,14,27,14.70
2017,04,26,14,28,14.80
2017,04,26,14,29,15.00
2017,04,26,14,30,15.20
2017,04,26,14,31,15.40
2017,04,26,14,32,15.50
2017,04,26,14,33,15.60
2017,04,26,14,34,15.60
2017,04,26,14,35,15.70
2017,04,26,14,36,15.80
2017,04,26,14,37,15.80
2017,04,26,14,38,15.70
2017,04,26,14,39,15.60
2017,04,26,14,40,15.50
2017,04,26,14,41,15.40
2017,04,26,14,42,15.30
2017,04,26,14,43,15.10
2017,04,26,14,44,14.90
2017,04,26,14,45,14.60
2017,04,26,14,46,14.40
2017,04,26,14,47,14.30
2017,04,26,14,48,14.10
2017,04,26,14,49,14.10
2017,04,26,14,50,14.10
2017,04,26,14,51,13.90
2017,04,26,14,52,13.90
2017,04,26,14,53,13.90
2017,04,26,14,54,13.90
2017,04,26,14,55,13.90
2017,04,26,14,56,13.80
2017,04,26,14,57,13.80
2017,04,26,14,58,13.80
2017,04,26,14,59,13.90
2017,04,26,15,00,13.90
2017,04,26,15,01,14.00
2017,04,26,15,02,14.10
2017,04,26,15,03,14.20
2017,04,26,15,04,14.30
2017,04,26,15,05,14.40
2017,04,26,15,06,14.40
2017,04,26,15,07,14.50
2017,04,26,15,08,14.60
2017,04,26,15,09,14.70
2017,04,26,15,10,14.80
2017,04,26,15,11,14.80
2017,04,26,15,12,14.80
2017,04,26,15,13,14.80
2017,04,26,15,14,14.80
2017,04,26,15,15,14.80
2017,04,26,15,16,14.80
2017,04,26,15,17,14.80
2017,04,26,15,18,14.80
2017,04,26,15,19,14.70
2017,04,26,15,20,14.80
2017,04,26,15,21,14.80
2017,04,26,15,22,14.90
2017,04,26,15,23,14.90
2017,04,26,15,24,15.00
2017,04,26,15,25,15.10
2017,04,26,15,26,15.20
2017,04,26,15,27,15.30
2017,04,26,15,28,15.30
2017,04,26,15,29,15.30
2017,04,26,15,30,15.40
2017,04,26,15,31,15.50
2017,04,26,15,32,15.50
2017,04,26,15,33,15.60
2017,04,26,15,34,15.60
2017,04,26,15,35,15.50
2017,04,26,15,36,15.40
2017,04,26,15,37,15.40
2017,04,26,15,38,15.30
2017,04,26,15,39,15.30
2017,04,26,15,40,15.30
2017,04,26,15,41,15.30
2017,04,26,15,42,15.30
2017,04,26,15,43,15.30
2017,04,26,15,44,15.30
2017,04,26,15,45,15.30
2017,04,26,15,46,15.30
2017,04,26,15,47,15.30
2017,04,26,15,48,15.30
2017,04,26,15,49,15.30
2017,04,26,15,50,15.40
2017,04,26,15,51,15.40
2017,04,26,15,52,15.40
2017,04,26,15,53,15.40
2017,04,26,15,54,15.40
2017,04,26,15,55,15.50
2017,04,26,15,56,15.60
2017,04,26,15,57,15.50
2017,04,26,15,58,15.40
2017,04,26,15,59,15.50
2017,04,26,16,00,15.50
2017,04,26,16,01,15.50
2017,04,26,16,02,15.60
2017,04,26,16,03,15.60
2017,04,26,16,04,15.70
2017,04,26,16,05,15.70
2017,04,26,16,06,15.80
2017,04,26,16,07,15.80
2017,04,26,16,08,15.80
2017,04,26,16,09,15.80
2017,04,26,16,10,15.80
2017,04,26,16,11,15.80
2017,04,26,16,12,15.90
2017,04,26,16,13,15.90
2017,04,26,16,14,15.90
2017,04,26,16,15,15.80
2017,04,26,16,16,15.60
2017,04,26,16,17,15.60
2017,04,26,16,18,15.60
2017,04,26,16,19,15.60
2017,04,26,16,20,15.60
2017,04,26,16,21,15.60
2017,04,26,16,22,15.50
2017,04,26,16,23,15.50
2017,04,26,16,24,15.40
2017,04,26,16,25,15.40
2017,04,26,16,26,15.40
2017,04,26,16,27,15.20
2017,04,26,16,28,14.90
2017,04,26,16,29,14.70
2017,04,26,16,30,14.50
2017,04,26,16,31,14.40
2017,04,26,16,32,14.30
2017,04,26,16,33,14.00
2017,04,26,16,34,13.80
2017,04,26,16,35,13.50
2017,04,26,16,36,13.30
2017,04,26,16,37,13.20
2017,04,26,16,38,12.90
2017,04,26,16,39,12.70
2017,04,26,16,40,12.50
2017,04,26,16,41,12.30
2017,04,26,16,42,12.10
2017,04,26,16,43,12.00
2017,04,26,16,44,11.80
2017,04,26,16,45,11.60
2017,04,26,16,46,11.50
2017,04,26,16,47,11.50
2017,04,26,16,48,11.40
2017,04,26,16,49,11.40
2017,04,26,16,50,11.40
2017,04,26,16,51,11.40
2017,04,26,16,52,11.30
2017,04,26,16,53,11.30
2017,04,26,16,54,11.30
2017,04,26,16,55,11.30
2017,04,26,16,56,11.30
2017,04,26,16,57,11.30
2017,04,26,16,58,11.30
2017,04,26,16,59,11.30
2017,04,26,17,00,11.20
2017,04,26,17,01,11.20
2017,04,26,17,02,11.20
2017,04,26,17,03,11.10
2017,04,26,17,04,11.10
2017,04,26,17,05,11.00
2017,04,26,17,06,10.90
2017,04,26,17,07,10.80
2017,04,26,17,08,10.70
2017,04,26,17,09,10.60
2017,04,26,17,10,10.50
2017,04,26,17,11,10.40
2017,04,26,17,12,10.30
2017,04,26,17,13,10.20
2017,04,26,17,14,10.10
2017,04,26,17,15,10.00
2017,04,26,17,16,9.90
2017,04,26,17,17,9.90
2017,04,26,17,18,9.80
2017,04,26,17,19,9.70
2017,04,26,17,20,9.70
2017,04,26,17,21,9.60
2017,04,26,17,22,9.50
2017,04,26,17,23,9.50
2017,04,26,17,24,9.50
2017,04,26,17,25,9.40
2017,04,26,17,26,9.40
2017,04,26,17,27,9.40
2017,04,26,17,28,9.40
2017,04,26,17,29,9.40
2017,04,26,17,30,9.30
2017,04,26,17,31,9.30
2017,04,26,17,32,9.30
2017,04,26,17,33,9.30
2017,04,26,17,34,9.30
2017,04,26,17,35,9.30
2017,04,26,17,36,9.30
2017,04,26,17,37,9.30
2017,04,26,17,38,9.30
2017,04,26,17,39,9.40
2017,04,26,17,40,9.40
2017,04,26,17,41,9.40
2017,04,26,17,42,9.40
2017,04,26,17,43,9.40
2017,04,26,17,44,9.40
2017,04,26,17,45,9.40
2017,04,26,17,46,9.40
2017,04,26,17,47,9.40
2017,04,26,17,48,9.40
2017,04,26,17,49,9.30
2017,04,26,17,50,9.30
2017,04,26,17,51,9.30
2017,04,26,17,52,9.30
2017,04,26,17,53,9.30
2017,04,26,17,54,9.30
2017,04,26,17,55,9.30
2017,04,26,17,56,9.30
2017,04,26,17,57,9.30
2017,04,26,17,58,9.30
2017,04,26,17,59,9.30
2017,04,26,18,00,9.30
2017,04,26,18,01,9.30
2017,04,26,18,02,9.30
2017,04,26,18,03,9.30
2017,04,26,18,04,9.30
2017,04,26,18,05,9.30
2017,04,26,18,06,9.30
2017,04,26,18,07,9.30
2017,04,26,18,08,9.30
2017,04,26,18,09,9.30
2017,04,26,18,10,9.30
2017,04,26,18,11,9.40
2017,04,26,18,12,9.40
2017,04,26,18,13,9.40
2017,04,26,18,14,9.50
2017,04,26,18,15,9.50
2017,04,26,18,16,9.50
2017,04,26,18,17,9.60
2017,04,26,18,18,9.60
2017,04,26,18,19,9.60
2017,04,26,18,20,9.60
2017,04,26,18,21,9.60
2017,04,26,18,22,9.60
2017,04,26,18,23,9.60
2017,04,26,18,24,9.60
2017,04,26,18,25,9.60
2017,04,26,18,26,9.60
2017,04,26,18,27,9.60
2017,04,26,18,28,9.60
2017,04,26,18,29,9.60
2017,04,26,18,30,9.60
2017,04,26,18,31,9.60
2017,04,26,18,32,9.60
2017,04,26,18,33,9.60
2017,04,26,18,34,9.60
2017,04,26,18,35,9.60
2017,04,26,18,36,9.60
2017,04,26,18,37,9.60
2017,04,26,18,38,9.60
2017,04,26,18,39,9.60
2017,04,26,18,40,9.60
2017,04,26,18,41,9.60
2017,04,26,18,42,9.70
2017,04,26,18,43,9.70
2017,04,26,18,44,9.70
2017,04,26,18,45,9.80
2017,04,26,18,46,9.80
2017,04,26,18,47,9.80
2017,04,26,18,48,9.80
2017,04,26,18,49,9.90
2017,04,26,18,50,9.90
2017,04,26,18,51,9.90
2017,04,26,18,52,9.90
2017,04,26,18,53,9.90
2017,04,26,18,54,9.90
2017,04,26,18,55,10.00
2017,04,26,18,56,10.00
2017,04,26,18,57,10.00
2017,04,26,18,58,10.00
2017,04,26,18,59,10.00
2017,04,26,19,00,10.00
2017,04,26,19,01,10.00
2017,04,26,19,02,10.00
2017,04,26,19,03,10.00
2017,04,26,19,04,10.00
2017,04,26,19,05,10.00
2017,04,26,19,06,10.00
2017,04,26,19,07,10.00
2017,04,26,19,08,10.00
2017,04,26,19,09,10.00
2017,04,26,19,10,10.00
2017,04,26,19,11,9.90
2017,04,26,19,12,9.90
2017,04,26,19,13,9.90
2017,04,26,19,14,9.90
2017,04,26,19,15,9.90
2017,04,26,19,16,9.90
2017,04,26,19,17,9.80
2017,04,26,19,18,9.80
2017,04,26,19,19,9.80
2017,04,26,19,20,9.80
2017,04,26,19,21,9.80
2017,04,26,19,22,9.80
2017,04,26,19,23,9.80
2017,04,26,19,24,9.80
2017,04,26,19,25,9.80
2017,04,26,19,26,9.80
2017,04,26,19,27,9.70
2017,04,26,19,28,9.70
2017,04,26,19,29,9.70
2017,04,26,19,30,9.70
2017,04,26,19,31,9.70
2017,04,26,19,32,9.60
2017,04,26,19,33,9.60
2017,04,26,19,34,9.60
2017,04,26,19,35,9.60
2017,04,26,19,36,9.50
2017,04,26,19,37,9.50
2017,04,26,19,38,9.50
2017,04,26,19,39,9.50
2017,04,26,19,40,9.40
2017,04,26,19,41,9.40
2017,04,26,19,42,9.40
2017,04,26,19,43,9.40
2017,04,26,19,44,9.30
2017,04,26,19,45,9.30
2017,04,26,19,46,9.30
2017,04,26,19,47,9.30
2017,04,26,19,48,9.20
2017,04,26,19,49,9.20
2017,04,26,19,50,9.20
2017,04,26,19,51,9.20
2017,04,26,19,52,9.10
2017,04,26,19,53,9.10
2017,04,26,19,54,9.10
2017,04,26,19,55,9.10
2017,04,26,19,56,9.10
2017,04,26,19,57,9.10
2017,04,26,19,58,9.00
2017,04,26,19,59,9.00
2017,04,26,20,00,8.90
2017,04,26,20,01,8.90
2017,04,26,20,02,8.90
2017,04,26,20,03,8.90
2017,04,26,20,04,8.80
2017,04,26,20,05,8.80
2017,04,26,20,06,8.80
2017,04,26,20,07,8.80
2017,04,26,20,08,8.70
2017,04,26,20,09,8.70
2017,04,26,20,10,8.60
2017,04,26,20,11,8.60
2017,04,26,20,12,8.60
2017,04,26,20,13,8.60
2017,04,26,20,14,8.50
2017,04,26,20,15,8.50
2017,04,26,20,16,8.50
2017,04,26,20,17,8.40
2017,04,26,20,18,8.40
2017,04,26,20,19,8.40
2017,04,26,20,20,8.40
2017,04,26,20,21,8.40
2017,04,26,20,22,8.40
2017,04,26,20,23,8.30
2017,04,26,20,24,8.30
2017,04,26,20,25,8.30
2017,04,26,20,26,8.30
2017,04,26,20,27,8.30
2017,04,26,20,28,8.30
2017,04,26,20,29,8.30
2017,04,26,20,30,8.20
2017,04,26,20,31,8.20
2017,04,26,20,32,8.20
2017,04,26,20,33,8.20
2017,04,26,20,34,8.20
2017,04,26,20,35,8.20
2017,04,26,20,36,8.10
2017,04,26,20,37,8.10
2017,04,26,20,38,8.10
2017,04,26,20,39,8.10
2017,04,26,20,40,8.10
2017,04,26,20,41,8.10
2017,04,26,20,42,8.10
2017,04,26,20,43,8.10
2017,04,26,20,44,8.10
2017,04,26,20,45,8.10
2017,04,26,20,46,8.10
2017,04,26,20,47,8.10
2017,04,26,20,48,8.10
2017,04,26,20,49,8.10
2017,04,26,20,50,8.10
2017,04,26,20,51,8.10
2017,04,26,20,52,8.00
2017,04,26,20,53,8.00
2017,04,26,20,54,8.00
2017,04,26,20,55,8.00
2017,04,26,20,56,8.00
2017,04,26,20,57,8.10
2017,04,26,20,58,8.10
2017,04,26,20,59,8.10
2017,04,26,21,00,8.10
2017,04,26,21,01,8.10
2017,04,26,21,02,8.10
2017,04,26,21,03,8.10
2017,04,26,21,04,8.10
2017,04,26,21,05,8.10
2017,04,26,21,06,8.10
2017,04,26,21,07,8.10
2017,04,26,21,08,8.10
2017,04,26,21,09,8.10
2017,04,26,21,10,8.10
2017,04,26,21,11,8.10
2017,04,26,21,12,8.10
2017,04,26,21,13,8.00
2017,04,26,21,14,8.00
2017,04,26,21,15,8.00
2017,04,26,21,16,8.00
2017,04,26,21,17,8.00
2017,04,26,21,18,7.90
2017,04,26,21,19,7.90
2017,04,26,21,20,7.90
2017,04,26,21,21,7.90
2017,04,26,21,22,7.90
2017,04,26,21,23,7.90
2017,04,26,21,24,7.80
2017,04,26,21,25,7.80
2017,04,26,21,26,7.80
2017,04,26,21,27,7.80
2017,04,26,21,28,7.80
2017,04,26,21,29,7.80
2017,04,26,21,30,7.80
2017,04,26,21,31,7.80
2017,04,26,21,32,7.80
2017,04,26,21,33,7.80
2017,04,26,21,34,7.80
2017,04,26,21,35,7.80
2017,04,26,21,36,7.80
2017,04,26,21,37,7.80
2017,04,26,21,38,7.80
2017,04,26,21,39,7.80
2017,04,26,21,40,7.80
2017,04,26,21,41,7.70
2017,04,26,21,42,7.70
2017,04,26,21,43,7.70
2017,04,26,21,44,7.70
2017,04,26,21,45,7.70
2017,04,26,21,46,7.70
2017,04,26,21,47,7.70
2017,04,26,21,48,7.70
2017,04,26,21,49,7.60
2017,04,26,21,50,7.60
2017,04,26,21,51,7.60
2017,04,26,21,52,7.60
2017,04,26,21,53,7.60
2017,04,26,21,54,7.60
2017,04,26,21,55,7.50
2017,04,26,21,56,7.50
2017,04,26,21,57,7.40
2017,04,26,21,58,7.40
2017,04,26,21,59,7.40
2017,04,26,22,00,7.40
2017,04,26,22,01,7.30
2017,04,26,22,02,7.30
2017,04,26,22,03,7.30
2017,04,26,22,04,7.30
2017,04,26,22,05,7.30
2017,04,26,22,06,7.30
2017,04,26,22,07,7.20
2017,04,26,22,08,7.20
2017,04,26,22,09,7.20
2017,04,26,22,10,7.20
2017,04,26,22,11,7.10
2017,04,26,22,12,7.10
2017,04,26,22,13,7.10
2017,04,26,22,14,7.10
2017,04,26,22,15,7.10
2017,04,26,22,16,7.10
2017,04,26,22,17,7.10
2017,04,26,22,18,7.10
2017,04,26,22,19,7.10
2017,04,26,22,20,7.10
2017,04,26,22,21,7.10
2017,04,26,22,22,7.00
2017,04,26,22,23,7.00
2017,04,26,22,24,7.00
2017,04,26,22,25,7.00
2017,04,26,22,26,7.10
2017,04,26,22,27,7.10
2017,04,26,22,28,7.10
2017,04,26,22,29,7.10
2017,04,26,22,30,7.10
2017,04,26,22,31,7.10
2017,04,26,22,32,7.10
2017,04,26,22,33,7.10
2017,04,26,22,34,7.10
2017,04,26,22,35,7.10
2017,04,26,22,36,7.10
2017,04,26,22,37,7.20
2017,04,26,22,38,7.10
2017,04,26,22,39,7.10
2017,04,26,22,40,7.10
2017,04,26,22,41,7.10
2017,04,26,22,42,7.10
2017,04,26,22,43,7.10
2017,04,26,22,44,7.10
2017,04,26,22,45,7.10
2017,04,26,22,46,7.10
2017,04,26,22,47,7.10
2017,04,26,22,48,7.10
2017,04,26,22,49,7.10
2017,04,26,22,50,7.10
2017,04,26,22,51,7.10
2017,04,26,22,52,7.10
2017,04,26,22,53,7.10
2017,04,26,22,54,7.10
2017,04,26,22,55,7.10
2017,04,26,22,56,7.10
2017,04,26,22,57,7.10
2017,04,26,22,58,7.10
2017,04,26,22,59,7.10
2017,04,26,23,00,7.10
2017,04,26,23,01,7.10
2017,04,26,23,02,7.10
2017,04,26,23,03,7.10
2017,04,26,23,04,7.10
2017,04,26,23,05,7.10
2017,04,26,23,06,7.10
2017,04,26,23,07,7.10
2017,04,26,23,08,7.10
2017,04,26,23,09,7.10
2017,04,26,23,10,7.10
2017,04,26,23,11,7.10
2017,04,26,23,12,7.00
2017,04,26,23,13,7.00
2017,04,26,23,14,7.00
2017,04,26,23,15,7.00
2017,04,26,23,16,7.00
2017,04,26,23,17,7.00
2017,04,26,23,18,7.00
2017,04,26,23,19,7.00
2017,04,26,23,20,6.90
2017,04,26,23,21,6.90
2017,04,26,23,22,6.90
2017,04,26,23,23,6.90
2017,04,26,23,24,6.90
2017,04,26,23,25,6.90
2017,04,26,23,26,6.90
2017,04,26,23,27,6.90
2017,04,26,23,28,6.90
2017,04,26,23,29,6.90
2017,04,26,23,30,6.80
2017,04,26,23,31,6.90
2017,04,26,23,32,6.80
2017,04,26,23,33,6.80
2017,04,26,23,34,6.80
2017,04,26,23,35,6.80
2017,04,26,23,36,6.80
2017,04,26,23,37,6.80
2017,04,26,23,38,6.80
2017,04,26,23,39,6.80
2017,04,26,23,40,6.80
2017,04,26,23,41,6.80
2017,04,26,23,42,6.80
2017,04,26,23,43,6.80
2017,04,26,23,44,6.70
2017,04,26,23,45,6.70
2017,04,26,23,46,6.70
2017,04,26,23,47,6.70
2017,04,26,23,48,6.70
2017,04,26,23,49,6.70
2017,04,26,23,50,6.70
2017,04,26,23,51,6.60
2017,04,26,23,52,6.60
2017,04,26,23,53,6.60
2017,04,26,23,54,6.60
2017,04,26,23,55,6.60
2017,04,26,23,56,6.60
2017,04,26,23,57,6.70
2017,04,26,23,58,6.70
2017,04,26,23,59,6.70
